EW0408 Weather Reports


Display with metric or nautical units.
time (UTC)temp
F
wind
direction
speed
MPH
gust
MPH
rain 1hr
in
rain 24hr
in
rain mn
in
humidity
%
barometer
mb
20260505073005 68 45 7.0 10.0 0.00 0.00 0.00 88 1014.3
20260505072005 67 43 7.0 10.0 0.00 0.00 0.00 88 1014.4
20260505071005 67 41 5.0 9.0 0.00 0.00 0.00 88 1014.5
20260505070005 67 34 4.0 8.0 0.00 0.00 0.00 88 1014.9
20260505065005 68 35 4.0 7.0 0.00 0.00 0.00 87 1015.0
20260505064026 68 41 6.0 9.0 0.00 0.00 0.00 87 1015.2
20260505063025 68 40 6.0 9.0 0.00 0.00 0.00 87 1015.1
20260505062005 68 41 6.0 9.0 0.00 0.00 0.00 86 1015.0
20260505061005 68 44 7.0 11.0 0.00 0.00 0.00 86 1015.2
20260505060005 68 45 8.0 11.0 0.00 0.00 0.00 86 1015.2
20260505055005 68 42 8.0 10.0 0.00 0.00 0.00 87 1015.3
20260505054005 68 37 5.0 9.0 0.00 0.00 0.00 86 1015.5
20260505053005 68 41 5.0 9.0 0.00 0.00 0.00 86 1015.5
20260505052004 68 30 4.0 8.0 0.00 0.00 0.00 86 1015.6
20260505051004 68 26 4.0 8.0 0.00 0.00 0.00 85 1015.8
20260505041005 70 49 6.0 9.0 0.00 0.00 0.00 83 1015.7
20260505040005 70 54 5.0 9.0 0.00 0.00 0.00 83 1015.9
20260505035005 70 54 6.0 9.0 0.00 0.00 0.00 82 1015.8
20260505034005 70 56 5.0 9.0 0.00 0.00 0.00 82 1016.0
20260505033004 70 57 5.0 10.0 0.00 0.00 0.00 82 1016.1
20260505032004 71 59 4.0 9.0 0.00 0.00 0.00 81 1016.1
20260505031005 71 62 3.0 7.0 0.00 0.00 0.00 80 1016.0
20260505030004 71 61 3.0 12.0 0.00 0.00 0.00 80 1016.1
20260505025005 71 60 5.0 9.0 0.00 0.00 0.00 79 1016.1
20260505024025 71 55 5.0 10.0 0.00 0.00 0.00 79 1016.0
20260505023005 72 58 5.0 10.0 0.00 0.00 0.00 78 1016.0
20260505022005 72 53 7.0 11.0 0.00 0.00 0.00 78 1015.9
20260505021004 72 58 6.0 11.0 0.00 0.00 0.00 78 1015.8
20260505020004 72 56 7.0 11.0 0.00 0.00 0.00 78 1015.7
20260505015005 72 55 8.0 12.0 0.00 0.00 0.00 77 1016.0
20260505014005 72 56 6.0 10.0 0.00 0.00 0.00 78 1015.7
20260505013005 72 58 6.0 11.0 0.00 0.00 0.00 76 1015.7
20260505012004 72 57 6.0 11.0 0.00 0.00 0.00 76 1015.7
20260505011025 73 57 7.0 12.0 0.00 0.00 0.00 76 1015.5
20260505010005 73 54 7.0 12.0 0.00 0.00 0.00 76 1015.7
20260505005005 73 56 7.0 11.0 0.00 0.00 0.00 75 1015.7
20260505004004 74 55 7.0 11.0 0.00 0.00 0.00 75 1015.4
20260505003004 74 59 6.0 11.0 0.00 0.00 0.00 74 1015.2
20260505002004 74 65 4.0 9.0 0.00 0.00 0.00 75 1015.0
20260505001005 74 59 6.0 11.0 0.00 0.00 0.00 74 1015.0
20260505000005 75 57 8.0 15.0 0.00 0.00 0.00 72 1014.9
20260504235004 75 56 10.0 16.0 0.00 0.00 0.00 72 1014.8
20260504234005 75 57 8.0 16.0 0.00 0.00 0.00 72 1014.6
20260504233005 76 56 11.0 18.0 0.00 0.00 0.00 71 1014.6
20260504232005 76 58 7.0 15.0 0.00 0.00 0.00 71 1014.3
20260504231005 76 51 12.0 16.0 0.00 0.00 0.00 72 1014.3
20260504230005 76 57 9.0 16.0 0.00 0.00 0.00 71 1014.4
20260504225004 76 60 7.0 16.0 0.00 0.00 0.00 72 1014.4
20260504224005 77 65 7.0 18.0 0.00 0.00 0.00 71 1014.4
20260504223004 77 69 6.0 17.0 0.00 0.00 0.00 70 1014.2
20260504222004 77 56 10.0 20.0 0.00 0.00 0.00 68 1014.2
20260504221004 78 55 9.0 17.0 0.00 0.00 0.00 69 1014.1
20260504220026 78 57 9.0 19.0 0.00 0.00 0.00 69 1014.1
20260504215004 78 57 8.0 20.0 0.00 0.00 0.00 69 1014.1
20260504214004 79 58 8.0 17.0 0.00 0.00 0.00 68 1014.1
20260504213004 78 57 9.0 15.0 0.00 0.00 0.00 67 1014.1
20260504212004 80 64 6.0 15.0 0.00 0.00 0.00 66 1014.0
20260504211025 79 72 5.0 13.0 0.00 0.00 0.00 67 1014.3
20260504210005 79 57 9.0 17.0 0.00 0.00 0.00 69 1014.2
20260504205005 79 56 11.0 19.0 0.00 0.00 0.00 66 1014.2
20260504204004 79 55 11.0 21.0 0.00 0.00 0.00 67 1014.2
20260504203005 79 58 8.0 20.0 0.00 0.00 0.00 66 1014.3
20260504202025 80 61 8.0 16.0 0.00 0.00 0.00 68 1014.4
20260504200004 79 73 5.0 17.0 0.00 0.00 0.00 67 1014.5
20260504195004 80 53 11.0 18.0 0.00 0.00 0.00 66 1014.6
20260504194004 79 50 13.0 19.0 0.00 0.00 0.00 65 1014.6
20260504193005 80 50 14.0 19.0 0.00 0.00 0.00 66 1014.7
20260504192005 82 75 4.0 13.0 0.00 0.00 0.00 63 1014.9
20260504191004 81 50 9.0 15.0 0.00 0.00 0.00 65 1015.2
20260504190004 79 50 14.0 19.0 0.00 0.00 0.00 65 1015.4
20260504185004 79 56 9.0 19.0 0.00 0.00 0.00 66 1015.4
20260504184004 79 63 6.0 14.0 0.00 0.00 0.00 66 1015.5
20260504183026 79 51 11.0 18.0 0.00 0.00 0.00 65 1015.8
20260504182004 80 49 9.0 14.0 0.00 0.00 0.00 66 1015.7
20260504181025 79 50 11.0 17.0 0.00 0.00 0.00 66 1016.0
20260504180004 79 56 10.0 19.0 0.00 0.00 0.00 66 1016.0
20260504175005 79 53 10.0 16.0 0.00 0.00 0.00 66 1016.1
20260504174004 79 56 10.0 17.0 0.00 0.00 0.00 66 1016.2
20260504173025 79 54 10.0 18.0 0.00 0.00 0.00 66 1016.3
20260504172005 79 48 11.0 17.0 0.00 0.00 0.00 67 1016.2
20260504171005 79 53 12.0 18.0 0.00 0.00 0.00 66 1016.3
20260504151004 77 48 11.0 18.0 0.00 0.00 0.00 66 1017.1
20260504141025 76 40 11.0 21.0 0.00 0.00 0.00 64 1016.8
20260504082004 69 18 6.0 12.0 0.00 0.35 0.00 82 1015.4
20260504081005 69 5 5.0 10.0 0.00 0.41 0.00 81 1015.5